Location: Bennemühlen
(52.5740°N, 9.7135°E)
Time: 21:25:05
(UTC+00:00)

Tiros 1 despin weight - Pass Details

Date: 25 February 2026
Orbit: 556 x 593 km, 48.2° (Epoch: 8 March)

Event Time Altitude Azimuth Distance (km) Brightness Sun altitude
Rises 10:45:39 0° 193° (SSW) 2,757 ? 27.6°
Reaches altitude 10° 10:49:32 10° 157° (SSE) 1,855 ? 27.7°
Maximum altitude 10:50:43 11° 141° (SE) 1,787 ? 27.7°
Drops below altitude 10° 10:51:54 10° 124° (SE) 1,852 ? 27.8°
Sets 10:55:46 0° 89° (E) 2,745 ? 27.9°
